[[{"header":{"parameterUnit":"m.s-1","parameterCategory":2,"la1":30.2991,"la2":30.254,"lo1":-89.0895,"lo2":-89.0444,"dy":0.0017,"dx":0.0017,"nx":28,"ny":28,"refTime":"2023-05-28T21:00:00:Z","depth":"0","parameterNumber":2,"parameterNumberName":"U-component_of_CURRENTS"},"data":[0,0,0,0,0,0,0,0,0,0,0,0,0,0,0,0,0,0,0,0,0,0,0,0,0,0,0,0,0,0,0,0,0,0,0,0,0,0,0,0,0,0,0,0,0,0,0,0,0,0,0,0,0,0,0,0,0,0,0.19,0.1901,0,0.1925,0.1925,0.1925,0.1922,0.1922,0.1921,0.1921,0.1935,0.1936,0.1936,0,0,0,0,0,0,0,0,0,0,0,0,0,0.1848,0.1849,0.19,0.1901,0.1901,0.1925,0.1925,0.1925,0.1922,0.1922,0.1921,0.1921,0.1935,0.1936,0.1936,0,0,0,0,0,0,0,0,0,0,0,0,0,0.1869,0.1849,0.19,0.1904,0.1905,0.1925,0.1925,0.1925,0.1922,0.1922,0.1921,0.1921,0.1935,0.1936,0.1936,0.1947,0,0,0.1939,0.1939,0,0,0,0,0,0,0,0,0.1868,0.1871,0.1903,0.1904,0.1905,0.1922,0.1912,0.1933,0.1922,0.1913,0.1921,0.1921,0.1932,0.1933,0.1935,0.1948,0.1949,0.1939,0.194,0.194,0.194,0,0,0,0,0,0,0,0.1866,0.187,0.1908,0.1904,0.1905,0.1904,0.1906,0.1915,0.1922,0.1914,0.1914,0.1921,0.1932,0.1934,0.1935,0.1949,0.1939,0.194,0.194,0.1941,0.1984,0.1985,0,0,0,0,0,0,0.1869,0.1868,0.1907,0.1909,0.1888,0.1905,0.1908,0.1915,0.1922,0.1923,0.1921,0.192,0.1933,0.1934,0.1936,0.1956,0.194,0.1941,0.1941,0.1984,0.1984,0.1985,0,0,0,0,0,0,0.1867,0.1872,0.1906,0.1891,0.1895,0.1907,0.1914,0.1916,0.1921,0.1928,0.1928,0.1925,0.1932,0.1934,0.1951,0.1956,0.1941,0.1942,0.1983,0.1984,0.1985,0.1992,0,0,0,0,0,0,0.1866,0.1871,0.1877,0.1891,0.1896,0.1919,0.1915,0.1916,0.1926,0.1926,0.1932,0.1933,0.1932,0.195,0.1952,0.1957,0.1942,0.1982,0.1983,0.1984,0.1991,0.1993,0.1995,0,0,0,0,0,0.1864,0.1875,0.1877,0.1882,0.1904,0.192,0.1922,0.1927,0.1927,0.193,0.1939,0.1933,0.1959,0.1952,0.1954,0.1959,0.1981,0.1983,0.1984,0.199,0.1993,0.1995,0,0,0,0,0,0,0.1858,0.1876,0.1879,0.1895,0.1907,0.192,0.1927,0.1931,0.194,0.194,0.1943,0.1945,0.1963,0.1963,0.1954,0.1976,0.1968,0.197,0.1972,0.1975,0.1977,0.1986,0.1943,0,0,0,0,0,0.186,0.1869,0.1886,0.1899,0.1905,0.1916,0.1924,0.1928,0.1939,0.1942,0.1947,0.1956,0.1971,0.1974,0.1985,0.1997,0.2033,0.2002,0.2004,0.2005,0.2015,0.207,0.2078,0.199,0.199,0.199,0,0,0.1859,0.1873,0.1876,0.1898,0.1906,0.1918,0.1919,0.1932,0.1942,0.1943,0.1957,0.1966,0.1977,0.1992,0.1999,0.1991,0.2055,0.2007,0.2008,0.2018,0.2072,0.2081,0.2089,0.1991,0.1991,0.1991,0,0,0.1862,0.1876,0.1882,0.1894,0.1912,0.1922,0.1927,0.1941,0.1947,0.1965,0.197,0.1985,0.1999,0.2009,0.2017,0.2038,0.2067,0.2037,0.205,0.2103,0.2111,0.2118,0.2198,0.2213,0.2033,0.2033,0.2034,0,0.1856,0.1871,0.1887,0.1899,0.1909,0.1924,0.1933,0.1947,0.1964,0.1975,0.197,0.2006,0.201,0.2037,0.2043,0.2043,0.209,0.2037,0.2106,0.2114,0.2121,0.2202,0.2218,0.2034,0.2034,0.2034,0.2034,0,0.1865,0.1876,0.1883,0.1901,0.1917,0.1926,0.195,0.1963,0.1974,0.1989,0.2017,0.2028,0.2051,0.205,0.2054,0.2101,0.2126,0.2106,0.21,0.2131,0.2214,0.223,0.2035,0.2035,0.2034,0.2034,0,0,0.1844,0.1878,0.1878,0.1886,0.1916,0.1928,0.1954,0.1981,0.2004,0.2019,0.2053,0.2069,0.208,0.209,0.2094,0.2131,0.2225,0.2142,0.2144,0.2223,0.2376,0.2428,0.2451,0.222,0.2222,0.2224,0.2421,0,0.1838,0.1853,0.1878,0.1893,0.1901,0.1931,0.1955,0.1986,0.2017,0.2056,0.2077,0.2113,0.2094,0.2112,0.2147,0.2216,0.2266,0.2176,0.2333,0.2339,0.2382,0.247,0.2489,0.2668,0.2437,0.244,0.2442,0,0.1833,0.1844,0.1853,0.1886,0.1894,0.191,0.1956,0.1982,0.2046,0.2077,0.2117,0.2147,0.2216,0.2186,0.2323,0.2272,0.2327,0.237,0.2378,0.2435,0.2421,0.2596,0.2707,0.256,0.2467,0.2465,0.2464,0,0.1801,0.1826,0.1831,0.184,0.1882,0.1896,0.1923,0.1982,0.2014,0.21,0.2147,0.2219,0.2279,0.2351,0.2451,0.2399,0.2615,0.2551,0.2649,0.2654,0.2706,0.2712,0.2694,0.2642,0.2641,0.2641,0.264,0,0.1781,0.1783,0.1814,0.1816,0.1829,0.1873,0.1907,0.1949,0.2024,0.208,0.2154,0.2228,0.2323,0.2448,0.2507,0.2668,0.2669,0.2691,0.2717,0.2712,0.2715,0.2617,0.2524,0.2648,0.2647,0.2645,0.2644,0,0.1743,0.176,0.1768,0.1804,0.1812,0.1823,0.1885,0.1919,0.2004,0.2087,0.2123,0.2272,0.2465,0.258,0.2741,0.2763,0.2818,0.293,0.2938,0.2961,0.2881,0.279,0.2704,0.2659,0.3075,0.3077,0.308,0,0.1721,0.172,0.1746,0.1746,0.1759,0.1786,0.1809,0.1891,0.1941,0.2115,0.216,0.2373,0.2517,0.2812,0.2959,0.3136,0.294,0.3186,0.3068,0.2916,0.2833,0.2609,0.256,0.3155,0.3158,0.316,0.3162,0,0.1677,0.1687,0.169,0.1697,0.1711,0.1736,0.1783,0.1821,0.194,0.2035,0.2195,0.2328,0.2673,0.2881,0.3132,0.3234,0.3026,0.3234,0.3072,0.2907,0.2669,0.2626,0.2991,0.3181,0.3179,0.3178,0.3177,0.3176,0.1632,0.1625,0.1633,0.1635,0.1654,0.1681,0.1696,0.1782,0.1865,0.2006,0.216,0.2359,0.2684,0.3073,0.3202,0.3334,0.3171,0.3209,0.3124,0.2919,0.2818,0.324,0.3445,0.3445,0.3444,0.3444,0.3444,0,0.1565,0.1567,0.1571,0.1573,0.1576,0.1613,0.1671,0.1698,0.179,0.1956,0.2098,0.2414,0.2682,0.2968,0.3219,0.3173,0.3071,0.3071,0.2743,0.2714,0.3124,0.3068,0.3205,0.3205,0.3205,0.3205,0.3205,0.3205,0.1527,0.1504,0.1512,0.1491,0.1499,0.15,0.1525,0.1595,0.1704,0.1882,0.2048,0.2214,0.248,0.2711,0.2831,0.2873,0.2628,0.256,0.2445,0.2706,0.2708,0.2711,0.2634,0.2677,0.2676,0.199,0.1984,0.198]},{"header":{"parameterUnit":"m.s-1","parameterCategory":2,"la1":30.2991,"la2":30.254,"lo1":-89.0895,"lo2":-89.0444,"dy":0.0017,"dx":0.0017,"nx":28,"ny":28,"refTime":"2023-05-28T21:00:00:Z","depth":"0","parameterNumber":3,"parameterNumberName":"V-component_of_CURRENTS"},"data":[0,0,0,0,0,0,0,0,0,0,0,0,0,0,0,0,0,0,0,0,0,0,0,0,0,0,0,0,0,0,0,0,0,0,0,0,0,0,0,0,0,0,0,0,0,0,0,0,0,0,0,0,0,0,0,0,0,0,0.1805,0.1805,0,0.1756,0.1755,0.1754,0.171,0.171,0.171,0.171,0.1556,0.1552,0.1548,0,0,0,0,0,0,0,0,0,0,0,0,0,0.1849,0.1848,0.1805,0.1805,0.1804,0.1756,0.1755,0.1754,0.171,0.171,0.171,0.171,0.1557,0.1552,0.1548,0,0,0,0,0,0,0,0,0,0,0,0,0,0.1814,0.1847,0.1805,0.178,0.1777,0.1757,0.1755,0.1754,0.1711,0.171,0.171,0.171,0.1559,0.1553,0.1547,0.1515,0,0,0.1529,0.1526,0,0,0,0,0,0,0,0,0.1816,0.1812,0.1784,0.1781,0.1779,0.1743,0.1714,0.167,0.1711,0.1732,0.171,0.171,0.1611,0.1601,0.1588,0.1508,0.1501,0.1528,0.1525,0.1522,0.152,0,0,0,0,0,0,0,0.1818,0.1814,0.1781,0.1784,0.1781,0.1767,0.1762,0.1706,0.1668,0.173,0.1727,0.1729,0.1609,0.1594,0.1584,0.1499,0.1529,0.1523,0.152,0.1517,0.1347,0.1346,0,0,0,0,0,0,0.1833,0.1816,0.1783,0.178,0.1802,0.1767,0.1761,0.1751,0.1671,0.1661,0.1729,0.1727,0.1604,0.1591,0.1578,0.1495,0.1522,0.1517,0.1513,0.1348,0.1346,0.1345,0,0,0,0,0,0,0.1834,0.183,0.1785,0.1801,0.1795,0.1767,0.1756,0.175,0.1735,0.1672,0.1659,0.172,0.1604,0.1587,0.1516,0.149,0.1514,0.1509,0.1349,0.1347,0.1346,0.1354,0,0,0,0,0,0,0.1835,0.1831,0.182,0.1802,0.1795,0.1767,0.1757,0.175,0.1738,0.1734,0.166,0.1646,0.1602,0.1525,0.151,0.1482,0.1504,0.135,0.1348,0.1346,0.1355,0.1353,0.1351,0,0,0,0,0,0.1837,0.1816,0.1819,0.1815,0.1783,0.1767,0.1761,0.1738,0.1738,0.1724,0.1672,0.1648,0.1503,0.1519,0.1502,0.1472,0.1351,0.1349,0.1346,0.1356,0.1353,0.1351,0,0,0,0,0,0,0.1819,0.181,0.1812,0.1788,0.1781,0.1761,0.1744,0.1742,0.1693,0.1683,0.163,0.1611,0.1541,0.1508,0.1527,0.1419,0.1425,0.1419,0.1438,0.1435,0.1433,0.1441,0.1499,0,0,0,0,0,0.1816,0.1803,0.1798,0.1779,0.1776,0.1766,0.1755,0.1746,0.171,0.169,0.1639,0.1579,0.1519,0.148,0.1424,0.1361,0.1337,0.1332,0.1331,0.1329,0.1324,0.1274,0.1267,0.1338,0.1338,0.1338,0,0,0.1808,0.18,0.1793,0.1777,0.1767,0.1749,0.1756,0.1741,0.1712,0.1677,0.1608,0.157,0.1503,0.1431,0.1397,0.1398,0.1296,0.1327,0.1326,0.1321,0.1271,0.1264,0.1258,0.1337,0.1337,0.1337,0,0,0.1783,0.1776,0.1759,0.1752,0.1744,0.1735,0.1736,0.1715,0.1689,0.1634,0.1599,0.1549,0.1456,0.1405,0.1367,0.1322,0.1292,0.1306,0.1293,0.1244,0.1238,0.1232,0.1196,0.1187,0.13,0.13,0.13,0,0.1773,0.1748,0.1751,0.1733,0.1724,0.1731,0.1711,0.1683,0.1638,0.1613,0.1608,0.1489,0.144,0.1354,0.1339,0.1316,0.1291,0.1308,0.1243,0.1236,0.123,0.1194,0.1184,0.13,0.13,0.13,0.13,0,0.1735,0.1718,0.1707,0.1687,0.1677,0.1661,0.1641,0.1616,0.1597,0.1573,0.1499,0.1439,0.1375,0.135,0.1325,0.1257,0.1254,0.1252,0.1252,0.1224,0.1187,0.1177,0.1301,0.13,0.13,0.13,0,0,0.1699,0.1686,0.1679,0.1672,0.1653,0.1643,0.1597,0.1562,0.1538,0.1486,0.1443,0.135,0.1348,0.1306,0.1275,0.1229,0.1171,0.1224,0.1222,0.1195,0.1069,0.1051,0.1038,0.1159,0.1157,0.1156,0.1062,0,0.1667,0.1638,0.1632,0.1601,0.1586,0.1581,0.154,0.151,0.1485,0.1444,0.1389,0.1339,0.1321,0.1303,0.125,0.1202,0.1142,0.1197,0.1093,0.109,0.1083,0.1024,0.1071,0.0989,0.1051,0.105,0.1048,0,0.1619,0.161,0.1583,0.1567,0.156,0.1541,0.1506,0.1475,0.1426,0.1407,0.1362,0.1336,0.1267,0.1262,0.1144,0.1182,0.1118,0.1075,0.107,0.1043,0.1052,0.1025,0.0967,0.0906,0.1032,0.1033,0.1034,0,0.159,0.1568,0.1551,0.1545,0.1527,0.1509,0.1498,0.1462,0.1443,0.14,0.1398,0.1312,0.1288,0.1193,0.1123,0.1127,0.1001,0.0996,0.0908,0.0907,0.0919,0.0922,0.0795,0.0885,0.0885,0.0886,0.0886,0,0.1551,0.1532,0.1541,0.153,0.1507,0.1502,0.1477,0.1457,0.1437,0.1427,0.139,0.1375,0.1271,0.1202,0.1114,0.0989,0.0991,0.0887,0.087,0.0923,0.0927,0.0853,0.0798,0.0882,0.0883,0.0884,0.0884,0,0.1514,0.1519,0.15,0.1493,0.1494,0.1479,0.1482,0.1469,0.1462,0.1455,0.1448,0.1412,0.1341,0.1233,0.1093,0.0989,0.0824,0.0817,0.0893,0.0886,0.0733,0.0677,0.0509,0.0488,0.0686,0.0685,0.0684,0,0.1491,0.1481,0.1481,0.1479,0.1477,0.1471,0.1467,0.147,0.1476,0.1485,0.1484,0.1434,0.1419,0.122,0.1043,0.0868,0.0795,0.0757,0.0754,0.0707,0.0633,0.0613,0.0607,0.0776,0.0776,0.0776,0.0776,0,0.1449,0.1454,0.1447,0.1449,0.1451,0.1462,0.1472,0.1483,0.15,0.1521,0.155,0.1552,0.1402,0.1272,0.1037,0.0907,0.0721,0.0745,0.0675,0.0658,0.0649,0.063,0.0864,0.0775,0.0775,0.0775,0.0775,0.0775,0.1413,0.1406,0.1409,0.141,0.1424,0.1453,0.1464,0.1501,0.1535,0.1591,0.161,0.1648,0.1496,0.1203,0.1018,0.0715,0.0687,0.0625,0.0552,0.0529,0.0526,0.0755,0.0661,0.0661,0.066,0.066,0.0659,0,0.1353,0.1364,0.137,0.1379,0.1396,0.142,0.1464,0.149,0.1546,0.1642,0.1702,0.1705,0.1467,0.1216,0.0812,0.0583,0.0531,0.0459,0.0454,0.0449,0.0639,0.0664,0.0595,0.0596,0.0596,0.0596,0.0596,0.0596,0.1316,0.1304,0.1321,0.1343,0.1366,0.1389,0.1419,0.1487,0.1564,0.1694,0.1778,0.1875,0.1712,0.1,0.0542,0.0427,0.0311,0.0257,0.0177,0.0328,0.034,0.0351,0.0364,0.0233,0.0233,0.0079,0.0077,0.0075]}],[{"header":{"parameterUnit":"m.s-1","parameterCategory":2,"la1":30.2991,"la2":30.254,"lo1":-89.0895,"lo2":-89.0444,"dy":0.0017,"dx":0.0017,"nx":28,"ny":28,"refTime":"2023-05-28T21:00:00:Z","depth":"2","parameterNumber":2,"parameterNumberName":"U-component_of_CURRENTS"},"data":[0,0,0,0,0,0,0,0,0,0,0,0,0,0,0,0,0,0,0,0,0,0,0,0,0,0,0,0,0,0,0,0,0,0,0,0,0,0,0,0,0,0,0,0,0,0,0,0,0,0,0,0,0,0,0,0,0,0,0.1376,0.1376,0,0.1392,0.1392,0.1392,0.1434,0.1435,0.1436,0.1437,0.1456,0.1455,0.1455,0,0,0,0,0,0,0,0,0,0,0,0,0,0.1384,0.1383,0.1376,0.1376,0.1376,0.1392,0.1392,0.1392,0.1433,0.1435,0.1436,0.1437,0.1456,0.1455,0.1454,0,0,0,0,0,0,0,0,0,0,0,0,0,0.1386,0.1383,0.1376,0.1401,0.1403,0.1392,0.1392,0.1392,0.1433,0.1435,0.1436,0.1438,0.1456,0.1455,0.1454,0.1417,0,0,0.1452,0.1452,0,0,0,0,0,0,0,0,0.1386,0.1385,0.1397,0.1399,0.1402,0.1414,0.1402,0.1401,0.1433,0.1419,0.1437,0.1439,0.1442,0.1443,0.1439,0.1418,0.1419,0.1452,0.1451,0.1451,0.1451,0,0,0,0,0,0,0,0.1386,0.1385,0.138,0.1397,0.14,0.1413,0.1414,0.1402,0.142,0.1421,0.1424,0.1429,0.1444,0.1439,0.144,0.1419,0.1452,0.1451,0.1451,0.1451,0.1466,0.1467,0,0,0,0,0,0,0.1386,0.1385,0.1379,0.1381,0.14,0.1411,0.1413,0.1407,0.142,0.1424,0.1428,0.1431,0.144,0.1441,0.1441,0.1476,0.1451,0.145,0.145,0.1465,0.1466,0.1467,0,0,0,0,0,0,0.1386,0.1385,0.1379,0.1386,0.1386,0.141,0.1402,0.1406,0.1424,0.1426,0.143,0.1444,0.1441,0.1442,0.1453,0.1475,0.145,0.1449,0.1464,0.1465,0.1467,0.1497,0,0,0,0,0,0,0.1386,0.1384,0.1383,0.1385,0.1386,0.1381,0.1401,0.1406,0.1424,0.1429,0.144,0.1443,0.1443,0.1455,0.1453,0.1473,0.1449,0.1463,0.1465,0.1466,0.1495,0.1499,0.1503,0,0,0,0,0,0.1386,0.1367,0.1383,0.1383,0.1382,0.1382,0.1383,0.1404,0.1424,0.1426,0.1444,0.1443,0.1464,0.1454,0.1452,0.1473,0.1462,0.1464,0.1466,0.1493,0.1498,0.1503,0,0,0,0,0,0,0.137,0.137,0.1387,0.1371,0.1385,0.139,0.1392,0.141,0.1424,0.1436,0.1443,0.1446,0.1466,0.1462,0.1451,0.1484,0.1467,0.1469,0.1489,0.1493,0.1497,0.152,0.1448,0,0,0,0,0,0.1367,0.1356,0.1367,0.1359,0.1364,0.1383,0.1388,0.1406,0.1418,0.1427,0.1439,0.1454,0.1466,0.1475,0.1478,0.1485,0.1509,0.1502,0.1506,0.1509,0.1527,0.1579,0.159,0.1474,0.1474,0.1474,0,0,0.1361,0.136,0.1356,0.1357,0.1368,0.1373,0.139,0.14,0.1418,0.1424,0.145,0.1463,0.1471,0.1489,0.1498,0.1492,0.1555,0.1512,0.1514,0.1531,0.1582,0.1594,0.1604,0.1475,0.1475,0.1475,0,0,0.1345,0.1343,0.1336,0.1343,0.1362,0.1371,0.138,0.1398,0.142,0.144,0.1459,0.1493,0.1496,0.1521,0.153,0.1556,0.1571,0.1554,0.1596,0.1645,0.1656,0.1665,0.171,0.1723,0.156,0.156,0.156,0,0.1344,0.1336,0.1336,0.1336,0.1348,0.1373,0.1382,0.1397,0.1424,0.145,0.1456,0.1511,0.1517,0.1561,0.158,0.1567,0.1596,0.1574,0.1652,0.1662,0.1671,0.1714,0.1729,0.1562,0.1562,0.1562,0.1561,0,0.1328,0.1329,0.1324,0.1335,0.1345,0.1353,0.1379,0.1403,0.1436,0.1465,0.1522,0.1543,0.1587,0.1592,0.1595,0.1665,0.1665,0.1647,0.1641,0.1684,0.1727,0.1742,0.1564,0.1564,0.1563,0.1563,0,0,0.1318,0.1314,0.132,0.133,0.1349,0.1356,0.1386,0.1427,0.1463,0.1506,0.1561,0.1606,0.1643,0.1658,0.1674,0.1721,0.181,0.172,0.1722,0.1768,0.1927,0.1866,0.1876,0.1808,0.1811,0.1813,0.1931,0,0.1319,0.1313,0.1318,0.1334,0.1337,0.1369,0.1395,0.1439,0.1481,0.1534,0.1593,0.1644,0.1658,0.1693,0.1747,0.1788,0.1849,0.178,0.1876,0.1879,0.1822,0.1891,0.1554,0.1625,0.1945,0.1947,0.1949,0,0.1316,0.1312,0.132,0.1341,0.1349,0.137,0.1429,0.1457,0.1532,0.157,0.1645,0.1685,0.1777,0.1772,0.1901,0.1858,0.191,0.1941,0.1945,0.1892,0.1846,0.1634,0.1639,0.1972,0.1971,0.1969,0.1967,0,0.1312,0.1321,0.1329,0.1334,0.1358,0.1389,0.1419,0.1483,0.1514,0.1608,0.1643,0.1749,0.1808,0.1893,0.1969,0.1949,0.2095,0.2067,0.2067,0.2063,0.1797,0.1765,0.2175,0.2174,0.2174,0.2174,0.2173,0,0.1304,0.1314,0.1334,0.1336,0.1368,0.1394,0.1444,0.1488,0.1552,0.159,0.1674,0.1719,0.1845,0.193,0.1996,0.2079,0.2126,0.2101,0.2099,0.1797,0.1766,0.2077,0.2064,0.2178,0.2177,0.2176,0.2176,0,0.1294,0.1301,0.1315,0.1348,0.1364,0.1394,0.1446,0.1473,0.1542,0.1594,0.1628,0.1729,0.1851,0.196,0.2097,0.2106,0.2187,0.2205,0.1845,0.18,0.2119,0.2107,0.223,0.2229,0.2228,0.2227,0.2227,0,0.1284,0.1289,0.1323,0.1336,0.1356,0.1397,0.1418,0.1473,0.1491,0.1583,0.1598,0.1737,0.1802,0.1976,0.1978,0.2078,0.2212,0.1875,0.1782,0.2144,0.2131,0.2119,0.2108,0.1439,0.1432,0.1426,0.1422,0,0.1275,0.1297,0.1308,0.1332,0.1357,0.1363,0.1397,0.1393,0.1451,0.1487,0.1541,0.1604,0.1711,0.1658,0.1779,0.1775,0.1827,0.1766,0.2233,0.1484,0.141,0.1393,0.1405,0.1371,0.1376,0.138,0.1382,0.1384,0.1284,0.1294,0.1317,0.1339,0.1349,0.1328,0.1315,0.1317,0.1322,0.1331,0.1421,0.1433,0.1376,0.1404,0.142,0.1436,0.1564,0.1488,0.15,0.1519,0.1414,0.1343,0.1272,0.1276,0.128,0.1283,0.1286,0,0.1294,0.1314,0.1323,0.1324,0.1297,0.1335,0.1296,0.1239,0.1201,0.1203,0.1231,0.102,0.0971,0.1054,0.0954,0.0973,0.0905,0.0987,0.0857,0.09,0.0941,0.0806,0.0504,0.0504,0.0504,0.0504,0,0,0.1302,0.1309,0.1306,0.1273,0.1283,0.124,0.1211,0.1115,0.1063,0.0933,0.0891,0.089,0.091,0.0685,0.0619,0.0601,0.0768,0.0552,0.1132,0.1013,0.1056,0.1132,0.0959,0,0,0,0,0]},{"header":{"parameterUnit":"m.s-1","parameterCategory":2,"la1":30.2991,"la2":30.254,"lo1":-89.0895,"lo2":-89.0444,"dy":0.0017,"dx":0.0017,"nx":28,"ny":28,"refTime":"2023-05-28T21:00:00:Z","depth":"2","parameterNumber":3,"parameterNumberName":"V-component_of_CURRENTS"},"data":[0,0,0,0,0,0,0,0,0,0,0,0,0,0,0,0,0,0,0,0,0,0,0,0,0,0,0,0,0,0,0,0,0,0,0,0,0,0,0,0,0,0,0,0,0,0,0,0,0,0,0,0,0,0,0,0,0,0,-0.0691,-0.0692,0,-0.0738,-0.0738,-0.0739,-0.0736,-0.0735,-0.0734,-0.0734,-0.0794,-0.0796,-0.0798,0,0,0,0,0,0,0,0,0,0,0,0,0,-0.0629,-0.063,-0.0691,-0.0692,-0.0692,-0.0738,-0.0738,-0.0739,-0.0736,-0.0735,-0.0734,-0.0733,-0.0793,-0.0796,-0.0798,0,0,0,0,0,0,0,0,0,0,0,0,0,-0.0663,-0.063,-0.0691,-0.0696,-0.0697,-0.0737,-0.0738,-0.0739,-0.0736,-0.0735,-0.0734,-0.0733,-0.0792,-0.0795,-0.0799,-0.0839,0,0,-0.0809,-0.081,0,0,0,0,0,0,0,0,-0.0661,-0.0665,-0.0695,-0.0696,-0.0697,-0.073,-0.0738,-0.0773,-0.0736,-0.0721,-0.0734,-0.0733,-0.0775,-0.0779,-0.079,-0.0842,-0.0844,-0.0809,-0.0811,-0.0812,-0.0813,0,0,0,0,0,0,0,-0.0659,-0.0664,-0.0709,-0.0696,-0.0697,-0.0706,-0.071,-0.0745,-0.0753,-0.0722,-0.0722,-0.0728,-0.0775,-0.0786,-0.0791,-0.0845,-0.0809,-0.0812,-0.0814,-0.0815,-0.0879,-0.0879,0,0,0,0,0,0,-0.0653,-0.0661,-0.0708,-0.0711,-0.0677,-0.0708,-0.0712,-0.072,-0.0752,-0.0756,-0.0729,-0.0728,-0.0781,-0.0787,-0.0793,-0.0788,-0.0812,-0.0816,-0.0817,-0.088,-0.0879,-0.0879,0,0,0,0,0,0,-0.0652,-0.0657,-0.0706,-0.0687,-0.0694,-0.071,-0.072,-0.0722,-0.0713,-0.0757,-0.0761,-0.0715,-0.0781,-0.0789,-0.0808,-0.0792,-0.0817,-0.082,-0.088,-0.088,-0.0879,-0.0813,0,0,0,0,0,0,-0.065,-0.0656,-0.0648,-0.0687,-0.0695,-0.0714,-0.0721,-0.0723,-0.072,-0.0718,-0.0748,-0.0753,-0.0781,-0.0803,-0.0812,-0.0797,-0.0823,-0.088,-0.088,-0.0879,-0.0815,-0.081,-0.0806,0,0,0,0,0,-0.0648,-0.0649,-0.0647,-0.0652,-0.0687,-0.0714,-0.0718,-0.0727,-0.0719,-0.0715,-0.0734,-0.0751,-0.0805,-0.0806,-0.0816,-0.0802,-0.0881,-0.088,-0.0879,-0.0817,-0.0811,-0.0806,0,0,0,0,0,0,-0.0619,-0.065,-0.0649,-0.0658,-0.0674,-0.0713,-0.0709,-0.0716,-0.0728,-0.0719,-0.0755,-0.0763,-0.077,-0.08,-0.08,-0.0819,-0.0843,-0.0844,-0.0793,-0.0787,-0.0782,-0.0757,-0.0825,0,0,0,0,0,-0.0609,-0.0616,-0.0644,-0.0649,-0.0653,-0.0675,-0.0682,-0.0688,-0.0711,-0.0713,-0.0733,-0.0757,-0.0781,-0.0793,-0.0819,-0.0838,-0.0843,-0.0833,-0.0828,-0.0824,-0.081,-0.0814,-0.0808,-0.0877,-0.0877,-0.0877,0,0,-0.06,-0.0617,-0.062,-0.0643,-0.0654,-0.0658,-0.0676,-0.0681,-0.0678,-0.0721,-0.0715,-0.074,-0.0781,-0.0794,-0.0801,-0.0815,-0.0805,-0.0823,-0.0819,-0.0808,-0.0813,-0.0806,-0.08,-0.0876,-0.0876,-0.0877,0,0,-0.0594,-0.0598,-0.0599,-0.0607,-0.0619,-0.0635,-0.0629,-0.0652,-0.0649,-0.0661,-0.0682,-0.0692,-0.0736,-0.0754,-0.0773,-0.076,-0.0776,-0.0769,-0.0728,-0.0732,-0.0726,-0.0721,-0.0703,-0.0697,-0.077,-0.077,-0.077,0,-0.0576,-0.0584,-0.0603,-0.0603,-0.0599,-0.0618,-0.0609,-0.062,-0.0643,-0.0636,-0.0647,-0.068,-0.0714,-0.0724,-0.072,-0.0746,-0.0746,-0.0746,-0.0723,-0.0719,-0.0714,-0.0698,-0.0692,-0.0767,-0.0767,-0.0767,-0.0768,0,-0.0576,-0.0568,-0.0568,-0.0571,-0.057,-0.0567,-0.0579,-0.0573,-0.0573,-0.0581,-0.0577,-0.0619,-0.0637,-0.065,-0.0685,-0.0672,-0.0679,-0.0712,-0.0733,-0.0703,-0.0688,-0.0683,-0.0762,-0.0763,-0.0764,-0.0765,0,0,-0.0562,-0.0565,-0.0559,-0.0543,-0.0545,-0.0545,-0.0534,-0.0528,-0.0508,-0.0524,-0.0497,-0.0539,-0.0549,-0.057,-0.0606,-0.0612,-0.0583,-0.0646,-0.0648,-0.0617,-0.0571,-0.0507,-0.0496,-0.0614,-0.0613,-0.0612,-0.0566,0,-0.0546,-0.0533,-0.0539,-0.0509,-0.0496,-0.0496,-0.0482,-0.0475,-0.0474,-0.0455,-0.0478,-0.0478,-0.0524,-0.0529,-0.0538,-0.0575,-0.0569,-0.0591,-0.0614,-0.0614,-0.0552,-0.0487,-0.0534,-0.0491,-0.0561,-0.056,-0.056,0,-0.0537,-0.0525,-0.0496,-0.0463,-0.0455,-0.044,-0.0402,-0.0396,-0.0382,-0.0379,-0.0376,-0.0396,-0.0402,-0.0449,-0.0472,-0.0484,-0.0515,-0.0541,-0.0541,-0.0499,-0.054,-0.0537,-0.0479,-0.0552,-0.0552,-0.0553,-0.0553,0,-0.0514,-0.0489,-0.0459,-0.0449,-0.0424,-0.04,-0.0385,-0.0366,-0.0347,-0.0329,-0.0307,-0.0321,-0.032,-0.036,-0.041,-0.0444,-0.0422,-0.0483,-0.0447,-0.0443,-0.0494,-0.0494,-0.0486,-0.0486,-0.0486,-0.0486,-0.0486,0,-0.0496,-0.0465,-0.0443,-0.0425,-0.0378,-0.0368,-0.0322,-0.031,-0.0281,-0.0239,-0.0266,-0.0219,-0.03,-0.03,-0.0363,-0.0361,-0.0385,-0.0408,-0.0417,-0.0469,-0.0468,-0.0542,-0.055,-0.0484,-0.0485,-0.0485,-0.0485,0,-0.0471,-0.0463,-0.0423,-0.0385,-0.037,-0.0335,-0.029,-0.0259,-0.0236,-0.0178,-0.0168,-0.0141,-0.012,-0.0185,-0.0231,-0.0282,-0.0309,-0.0309,-0.0344,-0.0357,-0.0341,-0.0346,-0.026,-0.0257,-0.0254,-0.0252,-0.0251,0,-0.0454,-0.0434,-0.0392,-0.037,-0.0349,-0.0304,-0.0272,-0.0242,-0.0201,-0.011,-0.0067,-0.0023,0.0068,0.0049,-0.0059,-0.0119,-0.0196,-0.0224,-0.0294,-0.0294,-0.0314,-0.0322,-0.033,-0.0343,-0.0342,-0.0341,-0.0341,0,-0.0413,-0.0402,-0.0375,-0.0337,-0.03,-0.0253,-0.0198,-0.015,-0.0092,0.0003,0.0154,0.0248,0.0237,0.0181,0.0077,0.0013,-0.0218,-0.0207,-0.0206,-0.0376,-0.0365,-0.0386,-0.0393,-0.0335,-0.0336,-0.0336,-0.0336,-0.0337,-0.0374,-0.0356,-0.033,-0.0291,-0.0255,-0.0183,-0.0114,-0.0015,0.0118,0.0317,0.036,0.0484,0.0271,0.0189,0.0084,-0.0065,-0.0065,-0.0201,-0.0208,-0.0214,-0.0214,-0.0198,-0.0137,-0.0136,-0.0136,-0.0135,-0.0135,0,-0.0319,-0.0312,-0.0283,-0.0229,-0.0178,-0.017,-0.0052,0.0077,0.0294,0.0438,0.0637,0.0447,0.0398,0.0183,-0.0018,-0.0115,-0.0161,-0.0175,-0.0276,-0.0281,-0.0286,-0.0295,-0.0236,-0.0236,-0.0236,-0.0236,0,0,-0.0288,-0.0261,-0.0257,-0.0167,-0.0129,-0.0023,0.006,0.0298,0.0426,0.0623,0.0644,0.0718,0.0371,0.0159,-0.0015,-0.0118,-0.0152,-0.012,-0.0037,-0.014,-0.0143,-0.0307,-0.0325,0,0,0,0,0]}],[{"header":{"parameterUnit":"m.s-1","parameterCategory":2,"la1":30.2991,"la2":30.254,"lo1":-89.0895,"lo2":-89.0444,"dy":0.0017,"dx":0.0017,"nx":28,"ny":28,"refTime":"2023-05-28T21:00:00:Z","depth":"4","parameterNumber":2,"parameterNumberName":"U-component_of_CURRENTS"},"data":[0,0,0,0,0,0,0,0,0,0,0,0,0,0,0,0,0,0,0,0,0,0,0,0,0,0,0,0,0,0,0,0,0,0,0,0,0,0,0,0,0,0,0,0,0,0,0,0,0,0,0,0,0,0,0,0,0,0,0.0257,0.0257,0,0.0257,0.0256,0.0256,0.0267,0.0268,0.0269,0.0269,0.026,0.0259,0.0258,0,0,0,0,0,0,0,0,0,0,0,0,0,0.0246,0.0246,0.0257,0.0257,0.0257,0.0257,0.0256,0.0256,0.0267,0.0268,0.0269,0.0269,0.026,0.0259,0.0258,0,0,0,0,0,0,0,0,0,0,0,0,0,0.0246,0.0246,0.0257,0.0265,0.0266,0.0257,0.0256,0.0256,0.0267,0.0268,0.0269,0.027,0.026,0.0259,0.0258,0.0233,0,0,0.0254,0.0254,0,0,0,0,0,0,0,0,0.0246,0.0246,0.0264,0.0265,0.0266,0.0266,0.0249,0.0249,0.0267,0.0263,0.0269,0.027,0.0262,0.0261,0.0255,0.0233,0.0232,0.0254,0.0254,0.0253,0.0253,0,0,0,0,0,0,0,0.0246,0.0246,0.0253,0.0264,0.0265,0.0262,0.0263,0.0249,0.0255,0.0264,0.0265,0.027,0.0263,0.0256,0.0255,0.0232,0.0254,0.0253,0.0253,0.0252,0.022,0.022,0,0,0,0,0,0,0.0252,0.0246,0.0253,0.0254,0.0261,0.0262,0.0263,0.0262,0.0256,0.0256,0.0269,0.0271,0.0257,0.0256,0.0254,0.0251,0.0253,0.0252,0.0251,0.022,0.022,0.022,0,0,0,0,0,0,0.0252,0.0253,0.0254,0.0253,0.0253,0.0262,0.0261,0.0262,0.0277,0.0261,0.0261,0.0287,0.0258,0.0256,0.0251,0.025,0.0251,0.025,0.0221,0.022,0.022,0.0227,0,0,0,0,0,0,0.0251,0.0252,0.0259,0.0253,0.0253,0.026,0.026,0.0261,0.0279,0.0281,0.0275,0.0274,0.0259,0.0252,0.0249,0.0248,0.0249,0.0221,0.022,0.022,0.0227,0.0227,0.0227,0,0,0,0,0,0.0251,0.0251,0.0259,0.0261,0.026,0.026,0.026,0.0267,0.0279,0.0284,0.0277,0.0275,0.0249,0.0251,0.0248,0.0246,0.0221,0.0221,0.022,0.0227,0.0227,0.0227,0,0,0,0,0,0,0.0249,0.0252,0.0261,0.0263,0.027,0.0264,0.0271,0.0279,0.0278,0.0282,0.0271,0.0269,0.0262,0.0254,0.0258,0.0236,0.0235,0.0234,0.0242,0.0242,0.0242,0.0251,0.0248,0,0,0,0,0,0.0252,0.0256,0.026,0.0265,0.0271,0.0277,0.0282,0.0285,0.0283,0.0285,0.0281,0.0272,0.0253,0.0251,0.0234,0.0224,0.0226,0.0222,0.0222,0.0222,0.0227,0.022,0.022,0.0219,0.0219,0.0219,0,0,0.0252,0.0257,0.0259,0.0266,0.0272,0.0275,0.0282,0.0291,0.0292,0.0282,0.0286,0.0273,0.0251,0.0234,0.0232,0.0232,0.0225,0.0222,0.0222,0.0227,0.022,0.022,0.022,0.0219,0.0219,0.0219,0,0,0.0249,0.0261,0.0263,0.027,0.0284,0.0284,0.0294,0.0299,0.0304,0.03,0.0289,0.0281,0.0263,0.0243,0.023,0.0224,0.0225,0.0221,0.0229,0.0222,0.0223,0.0223,0.0235,0.0236,0.0222,0.0222,0.0222,0,0.0254,0.0255,0.0265,0.027,0.0278,0.0293,0.0297,0.0296,0.0299,0.0299,0.0305,0.0276,0.0264,0.0236,0.0233,0.0224,0.0228,0.023,0.0223,0.0223,0.0223,0.0236,0.0237,0.0223,0.0222,0.0222,0.0222,0,0.0245,0.0257,0.0261,0.0272,0.028,0.0287,0.0292,0.03,0.0311,0.0307,0.0298,0.0278,0.0264,0.0254,0.0241,0.023,0.0236,0.0223,0.0224,0.0224,0.0237,0.0238,0.0223,0.0223,0.0223,0.0223,0,0,0.0224,0.0252,0.0253,0.0269,0.0284,0.0288,0.0292,0.0296,0.0304,0.03,0.0303,0.0272,0.0274,0.026,0.0244,0.0237,0.0243,0.0234,0.0233,0.025,0.0244,0.0223,0.0222,0.0228,0.0228,0.0228,0.0257,0,0.0219,0.0235,0.0244,0.0261,0.0273,0.0288,0.0292,0.0297,0.0302,0.0307,0.0289,0.0284,0.0271,0.027,0.0259,0.0246,0.0244,0.0237,0.0239,0.0239,0.0223,0.0222,0.0228,0.0258,0.0258,0.0258,0.0258,0,0.0201,0.0219,0.0239,0.027,0.0276,0.0287,0.0305,0.0307,0.031,0.0314,0.0307,0.0302,0.0292,0.0283,0.0269,0.0266,0.026,0.025,0.025,0.0229,0.022,0.0255,0.026,0.026,0.026,0.026,0.026,0,0.018,0.0211,0.0233,0.0243,0.0276,0.029,0.0304,0.0313,0.032,0.0325,0.0335,0.0319,0.0324,0.0305,0.0287,0.0284,0.0272,0.0266,0.0243,0.0242,0.025,0.025,0.0258,0.0258,0.0257,0.0257,0.0257,0,0.0163,0.0177,0.0234,0.0244,0.0272,0.0293,0.0313,0.0323,0.0337,0.0345,0.0345,0.033,0.0331,0.032,0.0298,0.0274,0.0283,0.0248,0.0243,0.0254,0.0253,0.0252,0.0251,0.0259,0.0258,0.0258,0.0258,0,0.0127,0.0165,0.0195,0.0246,0.0267,0.0285,0.0326,0.0333,0.0355,0.0367,0.0374,0.0358,0.033,0.0325,0.0298,0.0295,0.0267,0.0254,0.0281,0.0277,0.0246,0.0245,0.0248,0.0248,0.0247,0.0247,0.0246,0,0.0109,0.0122,0.0195,0.0222,0.025,0.0286,0.0307,0.0338,0.0347,0.0361,0.0359,0.0348,0.0331,0.0281,0.0262,0.0243,0.023,0.0257,0.024,0.0248,0.0243,0.0243,0.0243,0.0246,0.0245,0.0245,0.0245,0,0.0066,0.01,0.0128,0.0195,0.0236,0.0269,0.0305,0.0308,0.034,0.0374,0.0341,0.0323,0.029,0.0246,0.0247,0.0218,0.0263,0.0251,0.0252,0.0237,0.0245,0.0241,0.0241,0.0243,0.0244,0.0244,0.0244,0,0.0032,0.0046,0.0101,0.0155,0.0213,0.0243,0.0258,0.0276,0.0291,0.0329,0.03,0.0269,0.0271,0.0229,0.0202,0.0202,0.0199,0.0227,0.0229,0.0231,0.0209,0.0215,0.0203,0,0,0,0,0,-0.0008,0.001,0.0056,0.0119,0.018,0.0218,0.0257,0.0269,0.0309,0.0291,0.0306,0.0265,0.0232,0.0187,0.0178,0.0179,0.0193,0.0172,0.0225,0.0234,0.0236,0.0209,0,0,0,0,0,0,-0.0034,-0.0001,0.0037,0.0092,0.013,0.0185,0.0208,0.0228,0.0217,0.0254,0.0209,0.0275,0.0207,0.0228,0.0174,0.0174,0.0213,0.0171,0.0172,0.0233,0.0234,0.0236,0.0209,0,0,0,0,0]},{"header":{"parameterUnit":"m.s-1","parameterCategory":2,"la1":30.2991,"la2":30.254,"lo1":-89.0895,"lo2":-89.0444,"dy":0.0017,"dx":0.0017,"nx":28,"ny":28,"refTime":"2023-05-28T21:00:00:Z","depth":"4","parameterNumber":3,"parameterNumberName":"V-component_of_CURRENTS"},"data":[0,0,0,0,0,0,0,0,0,0,0,0,0,0,0,0,0,0,0,0,0,0,0,0,0,0,0,0,0,0,0,0,0,0,0,0,0,0,0,0,0,0,0,0,0,0,0,0,0,0,0,0,0,0,0,0,0,0,-0.0242,-0.0243,0,-0.0287,-0.0287,-0.0288,-0.0392,-0.0395,-0.0397,-0.0399,-0.0497,-0.0498,-0.0498,0,0,0,0,0,0,0,0,0,0,0,0,0,-0.0211,-0.0211,-0.0242,-0.0243,-0.0244,-0.0287,-0.0287,-0.0288,-0.0392,-0.0395,-0.0397,-0.04,-0.0497,-0.0497,-0.0498,0,0,0,0,0,0,0,0,0,0,0,0,0,-0.0235,-0.0211,-0.0242,-0.0302,-0.0308,-0.0287,-0.0287,-0.0288,-0.0391,-0.0395,-0.0398,-0.0402,-0.0497,-0.0497,-0.0498,-0.0431,0,0,-0.05,-0.05,0,0,0,0,0,0,0,0,-0.0234,-0.0236,-0.0293,-0.0298,-0.0305,-0.0339,-0.0313,-0.0339,-0.039,-0.0358,-0.0399,-0.0403,-0.0448,-0.0453,-0.045,-0.0436,-0.044,-0.05,-0.05,-0.0501,-0.0501,0,0,0,0,0,0,0,-0.0232,-0.0234,-0.0258,-0.0293,-0.0301,-0.0315,-0.0322,-0.0317,-0.0382,-0.0361,-0.0369,-0.0376,-0.0452,-0.0449,-0.0453,-0.0442,-0.05,-0.0501,-0.0501,-0.0501,-0.053,-0.0531,0,0,0,0,0,0,-0.0228,-0.0233,-0.0257,-0.026,-0.028,-0.0313,-0.0321,-0.0323,-0.0381,-0.0393,-0.0373,-0.0381,-0.0446,-0.0452,-0.0457,-0.0504,-0.0501,-0.0501,-0.0502,-0.053,-0.053,-0.0531,0,0,0,0,0,0,-0.0227,-0.023,-0.0255,-0.0249,-0.0254,-0.031,-0.0311,-0.0322,-0.0383,-0.039,-0.0404,-0.043,-0.0449,-0.0456,-0.0482,-0.0505,-0.0502,-0.0502,-0.0529,-0.053,-0.0531,-0.052,0,0,0,0,0,0,-0.0226,-0.0229,-0.0251,-0.0249,-0.0254,-0.0265,-0.0308,-0.0321,-0.0378,-0.0391,-0.0442,-0.0451,-0.0452,-0.0481,-0.0483,-0.0506,-0.0503,-0.0529,-0.053,-0.053,-0.052,-0.0521,-0.0521,0,0,0,0,0,-0.0224,-0.0223,-0.0252,-0.0256,-0.0276,-0.0265,-0.0269,-0.032,-0.0378,-0.0391,-0.0427,-0.0453,-0.0488,-0.048,-0.0483,-0.0507,-0.0529,-0.0529,-0.053,-0.052,-0.052,-0.0521,0,0,0,0,0,0,-0.0226,-0.0234,-0.0265,-0.0272,-0.0285,-0.0285,-0.0308,-0.0346,-0.0383,-0.0419,-0.044,-0.0449,-0.0482,-0.0491,-0.0483,-0.0519,-0.0519,-0.0521,-0.0511,-0.0511,-0.0512,-0.0507,-0.0503,0,0,0,0,0,-0.0234,-0.0241,-0.0249,-0.0262,-0.0271,-0.0304,-0.032,-0.0353,-0.0374,-0.04,-0.0438,-0.0472,-0.0473,-0.0494,-0.0499,-0.0508,-0.0502,-0.0532,-0.0532,-0.0532,-0.0531,-0.0523,-0.0522,-0.0534,-0.0534,-0.0534,0,0,-0.0241,-0.0247,-0.0256,-0.0265,-0.0285,-0.0281,-0.0324,-0.0355,-0.0369,-0.0399,-0.0453,-0.0473,-0.0475,-0.0485,-0.0503,-0.0507,-0.0525,-0.0533,-0.0533,-0.0532,-0.0524,-0.0523,-0.0522,-0.0534,-0.0534,-0.0534,0,0,-0.0228,-0.0264,-0.026,-0.0266,-0.0297,-0.0304,-0.0326,-0.0359,-0.0399,-0.0426,-0.0453,-0.0484,-0.0512,-0.0505,-0.0502,-0.0506,-0.0522,-0.0534,-0.0536,-0.0529,-0.0528,-0.0526,-0.0509,-0.0506,-0.054,-0.054,-0.054,0,-0.0243,-0.0236,-0.0259,-0.0251,-0.0264,-0.0319,-0.0318,-0.0338,-0.0385,-0.041,-0.0454,-0.0495,-0.0509,-0.0494,-0.0503,-0.0507,-0.0507,-0.0532,-0.0528,-0.0526,-0.0525,-0.0508,-0.0505,-0.0539,-0.0539,-0.0539,-0.0539,0,-0.0208,-0.0224,-0.0222,-0.0231,-0.0244,-0.0254,-0.0279,-0.032,-0.039,-0.0415,-0.046,-0.0473,-0.0502,-0.0514,-0.051,-0.0513,-0.0517,-0.0523,-0.0523,-0.0523,-0.0505,-0.0502,-0.0539,-0.0539,-0.0539,-0.0539,0,0,-0.0192,-0.0196,-0.0204,-0.0213,-0.0242,-0.0243,-0.0268,-0.0292,-0.0326,-0.0388,-0.0421,-0.0437,-0.0486,-0.0485,-0.0499,-0.05,-0.0491,-0.052,-0.0519,-0.0495,-0.0476,-0.0468,-0.0464,-0.0505,-0.0505,-0.0505,-0.0463,0,-0.017,-0.0147,-0.0161,-0.0166,-0.0162,-0.0211,-0.0225,-0.0264,-0.0317,-0.036,-0.0396,-0.0428,-0.046,-0.0488,-0.0493,-0.0493,-0.0486,-0.0502,-0.0486,-0.0484,-0.0472,-0.0461,-0.0504,-0.046,-0.046,-0.0459,-0.0459,0,-0.0138,-0.0127,-0.0121,-0.0141,-0.0149,-0.0168,-0.0221,-0.0238,-0.0291,-0.0335,-0.0381,-0.0418,-0.0432,-0.0464,-0.0463,-0.0479,-0.048,-0.0477,-0.0476,-0.0471,-0.0472,-0.0463,-0.0454,-0.0454,-0.0454,-0.0455,-0.0455,0,-0.0111,-0.0109,-0.011,-0.0113,-0.0135,-0.0168,-0.0199,-0.0253,-0.0267,-0.0328,-0.0348,-0.0388,-0.0406,-0.0422,-0.0433,-0.0457,-0.042,-0.0445,-0.0428,-0.0427,-0.045,-0.0452,-0.0431,-0.0431,-0.0431,-0.0431,-0.0431,0,-0.0075,-0.0081,-0.0108,-0.0105,-0.0128,-0.0164,-0.0201,-0.0237,-0.0276,-0.0276,-0.0345,-0.0342,-0.04,-0.0393,-0.0414,-0.0407,-0.0402,-0.0421,-0.0416,-0.0447,-0.0449,-0.0447,-0.045,-0.0429,-0.043,-0.043,-0.043,0,-0.0053,-0.0064,-0.0063,-0.0096,-0.0116,-0.0145,-0.0192,-0.0201,-0.025,-0.0249,-0.0263,-0.0301,-0.0309,-0.0335,-0.0343,-0.0366,-0.0364,-0.0354,-0.0366,-0.0363,-0.0384,-0.0387,-0.0351,-0.0351,-0.035,-0.035,-0.0349,0,-0.0038,-0.0035,-0.006,-0.0068,-0.0096,-0.0136,-0.0154,-0.0198,-0.019,-0.0207,-0.0187,-0.021,-0.0235,-0.024,-0.028,-0.0308,-0.0316,-0.0315,-0.0379,-0.0378,-0.0376,-0.038,-0.0383,-0.0349,-0.0348,-0.0348,-0.0348,0,-0.0011,-0.0034,-0.003,-0.0042,-0.007,-0.0073,-0.01,-0.0092,-0.0117,-0.0131,-0.0132,-0.0171,-0.0173,-0.0225,-0.0239,-0.026,-0.0327,-0.0311,-0.0313,-0.0373,-0.0374,-0.0374,-0.0378,-0.0346,-0.0347,-0.0347,-0.0347,0,-0.0009,-0.0002,-0.0008,-0.0028,-0.0034,-0.0034,-0.0048,-0.0049,-0.0056,-0.0075,-0.0062,-0.011,-0.0137,-0.0194,-0.0199,-0.0233,-0.0265,-0.0292,-0.0297,-0.0299,-0.0311,-0.0306,-0.0245,0,0,0,0,0,-0.0008,-0.0002,0.0007,-0.0009,-0.0006,-0.0024,-0.0013,-0.0018,-0.0026,-0.0021,-0.0052,-0.0062,-0.0127,-0.0154,-0.0188,-0.0193,-0.0262,-0.0234,-0.0294,-0.0337,-0.0339,-0.0363,0,0,0,0,0,0,-0.0006,0.0005,0.0013,0.0004,-0.0009,-0.0007,-0.0008,-0.0009,-0.0009,-0.0023,-0.0054,-0.008,-0.0135,-0.0113,-0.0195,-0.0205,-0.0249,-0.0263,-0.0264,-0.0335,-0.0337,-0.0339,-0.0364,0,0,0,0,0]}]]